Regional Weather Roundup
Issued by NWS Wakefield, VA

Home | Current Version | Previous Version | Graphics & Text | Print | Product List | Glossary On
Versions: 1 2 3 4 5 6 7 8 9 10 11 12 13 14 15 16 17 18 19 20 21 22 23 24 25 26 27
000
ASUS41 KAKQ 022015
RWRAKQ

REGIONAL WEATHER ROUNDUP
NATIONAL WEATHER SERVICE WAKEFIELD VA
400 PM EDT MON MAY 02 2016

Note: "fair" indicates few or no clouds below 12,000 feet with no
significant weather and/or obstructions to visibility. * = Denotes
station may not report precipitation (e.g., rain,snow,etc.),
thunder or fog.

VAZ042-051-052>054-056-022100-
NORTHERN VIRGINIA

CITY           SKY/WX    TMP DP  RH WIND       PRES   REMARKS
WASH NATIONAL  NOT AVBL
DULLES         FAIR      77  64  64 S10       29.85F
FORT BELVOIR   FAIR      76  64  67 VRB7      29.86F
QUANTICO       FAIR      74  65  73 S3        29.86F
FREDERICKSBRG* FAIR      84  69  62 S7        29.84F
STAFFORD*      FAIR      81  65  58 S8        29.89F
WARRENTON      FAIR      84  59  43 SW6       29.84F
CULPEPER*      PTSUNNY   85  65  51 S6        29.84F
MANASSAS*      SUNNY     81  66  61 S8        29.85F
LEESBURG*      FAIR      79  66  65 S10       29.86F
WINCHESTER     FAIR      86  52  30 W14       29.83F
FRONT ROYAL*   FAIR      84  52  32 W6        29.82F
LURAY*         MOCLDY    81  59  47 E5        29.83F
$$

VAZ048-049-060>072-079>083-022100-
CENTRAL AND SOUTH CENTRAL VIRGINIA

CITY           SKY/WX    TMP DP  RH WIND       PRES   REMARKS
RICHMOND       FAIR      84  63  49 SW8       29.86F
CHESTERFIELD*  MOCLDY    86  61  42 S8        29.88F
PETERSBURG*    FAIR      86  61  43 SW10      29.88F
HANOVER        FAIR      85  61  44 S9        29.87F
TAPPAHANNOCK*  FAIR      84  64  49 SW5       29.87F
QUINTON*       FAIR      84  65  51 S5        29.86F
CHARLOTTSVILLE FAIR      87  57  35 VRB7      29.84F
GORDONSVILLE*  FAIR      85  65  49 S9        29.83F
ORANGE*        FAIR      86  61  42 NE8G16    29.86F
LOUISA*        PTSUNNY   86  66  51 S8        29.85F
BUMPASS*       FAIR      83  65  54 S7        29.86S
FARMVILLE*     PTSUNNY   80  65  58 S9        29.86F
CREWE*         FAIR      80  65  59 CALM      29.88F
FORT PICKETT*  NOT AVBL
CHASE CITY*    FAIR      84  61  45 SW5       29.89F
CLARKSVILLE*   MOCLDY    82  64  54 S8        29.89F
SOUTH HILL*    PTSUNNY   82  67  59 S9        29.95F
LAWRENCEVILLE* FAIR      85  68  56 S8        29.89F
EMPORIA*       FAIR      82  66  57 S9        29.90F
$$

VAZ088>098-022100-
SOUTHEAST VIRGINIA

CITY           SKY/WX    TMP DP  RH WIND       PRES   REMARKS
NORFOLK        FAIR      85  64  49 SW12      29.88F
VIRGINIA BEACH PTSUNNY   82  66  58 E9        29.88F
NORFOLK NAVAL  PTSUNNY   86  65  49 SW12      29.90F
WEST POINT*    FAIR      85  63  47 S7        29.88F
SALUDA*        FAIR      83  68  58 SW8       29.87F
NEWPORT NEWS   FAIR      84  67  56 SW8       29.88F
LANGLEY AFB    MOSUNNY   85  68  55 S13       29.88F
FORT EUSTIS    FAIR      85  68  56 S6        29.86F
WILLIAMSBURG*  FAIR      90  66  45 S9        29.88F
HR EXEC AP*    FAIR      88  66  48 SW13      29.90F
FRANKLIN*      PTSUNNY   83  66  56 S10G17    29.90F
US460-WAKEFLD  FAIR      85  64  49 SW7       29.87F
$$

VAZ020-022-025-037-045-022100-
WEST CENTRAL AND SOUTHWEST VIRGINIA

CITY           SKY/WX    TMP DP  RH WIND       PRES   REMARKS
STAUNTON*      FAIR      85  55  34 S12G21    29.88F
WAYNESBORO*    FAIR      81  52  36 SW6       29.88F
HOT SPRINGS VA PTSUNNY   72  50  45 W9G16     29.98F
LYNCHBURG      FAIR      75  63  66 S12       29.90F THUNDER
DANVILLE       FAIR      82  63  52 S6        29.89F
SOUTH BOSTON*  MOCLDY    82  62  50 S12       29.89F
MARTINSVILLE   FAIR      78  60  53 S5        29.91F
ROANOKE        PTSUNNY   83  59  44 S15       29.89F
BLACKSBURG     CLOUDY    75  59  56 S7        29.95F
DUBLIN*        PTSUNNY   76  59  55 S13       29.93F
MARION*        FAIR      76  57  52 W9G17     29.97F
HILLSVILLE*    PTSUNNY   67  64  89 SW6       29.96F
RICHLANDS*     MOCLDY    74  65  73 SW15G24   29.95F
WISE*          CLOUDY    72  52  49 SW17      29.99R
ABINGDON*      FAIR      75  59  56 W8        29.95S
$$

MDZ021>025-VAZ099-100-022100-
SOUTHERN MARYLAND AND THE DELMARVA PENINSULA

CITY           SKY/WX    TMP DP  RH WIND       PRES   REMARKS
PATUXENT RIVER MOSUNNY   69  62  78 SE12      29.87F
BAY BRIDGE APT NOT AVBL
LEONARDTOWN    SUNNY     77  64  65 SW9       29.89F
DOVER          SUNNY     65  64  94 NE7       29.88F
GEORGETOWN     MOSUNNY   76  65  68 VRB7      29.89S
EASTON         SUNNY    N/A N/A N/A SW7       29.92F
CAMBRIDGE      SUNNY     73  64  73 CALM      29.88F
SALISBURY      SUNNY     78  66  66 W13       29.88F
OCEAN CITY     SUNNY     67  62  84 S7        29.89F
WALLOPS ISLAND FAIR      76  67  73 S10       29.89F
ACCOMACK*      FAIR      81  63  54 W8        29.89F
$$

NCZ012>017-030>032-022100-
NORTH CENTRAL AND EASTERN NORTH CAROLINA

CITY           SKY/WX    TMP DP  RH WIND       PRES   REMARKS
ROANOKE RAPIDS FAIR      82  68  61 S9        29.90F
RALEIGH        PTSUNNY   83  66  56 SW8       29.91F
ELIZABETH CITY SUNNY     83  69  62 SW16      29.91F
AHOSKIE*       MOSUNNY   82  68  61 S6        29.91F
EDENTON*       NOT AVBL
CURRITUCK*     SUNNY     85  68  56 SW10G23   29.92F
KILL DEVIL HLS MOSUNNY   85  68  56 SW6       29.92F
MANTEO         NOT AVBL
CAPE HATTERAS  PTSUNNY   76  69  79 SW13      29.98F
TARBORO*       MOCLDY    85  68  57 S6        29.93F
GOLDSBORO      NOT AVBL
WASHINGTON     SUNNY     84  69  61 SW8       29.93F
GREENVILLE     PTSUNNY   82  70  65 S10       29.95F
NEW BERN       PTSUNNY   82  69  64 S10G20    29.96F
WILMINGTON     CLOUDY    84  65  52 S18G28    29.96F
$$

VAZ048-022100-
ELSEWHERE

CITY           SKY/WX    TMP DP  RH WIND       PRES   REMARKS
HARRISBURG PA  MOSUNNY   65  57  75 CALM      29.86F HAZE
BALTIMORE      MOSUNNY   69  60  73 E9        29.87F
ANNAPOLIS      SUNNY     63  60  90 SE7       29.87F
ANDREWS AFB    FAIR      76  64  66 S8        29.86F
PHILADELPHIA   CLOUDY    61  54  77 CALM      29.91F
HENDERSON NC   MOSUNNY   82  65  56 SW9       29.91F
GREENSBORO     PTSUNNY   82  62  50 SW8G20    29.90F
ROCKY MOUNT    MOSUNNY   84  68  58 S8        29.92F
$$

VAZ100-022100-
MARINE

STATION/POSITION TIME  TEMP    WIND        PRES    WAVE   SWELL
                       AIR SEA DIR/SP/G            HT/PER HT/PER
                 (UTC) (F)     (DEG/KT/KT) (MB)    (FT/S) (FT/S)
BRANDYWINE LGT   1900   54      90/  5/  6 1013.1R
CAPE MAY NJ      1900   60 58  320/  5/  7 1012.8R
LEWES DE         1900   58 56   80/  9/ 10 1012.5S
15NM E FENWICK I 1950   56 53              1012.0F   3/ 6
OCEAN-CITY-INLET 1900   59 56  200/  5/  8 1012.0F
WACHAPREAGUE VA  1900   80 62  220/  8/ 11 1012.2F
THOMAS POINT MD  2000   63 58  150/  8/  8 1012.7F
GOOSES REEF MD   2000   63 59  150/  6/  6 1012.6F   1
COVE POINT MD    1900   60     170/ 11/ 12 1012.8F
SOLOMONS ISLAND  1900   73 60  230/  7/  9   N/A
BISHOPS HEAD MD  1900   64 61  150/  3/  4 1012.0F
PINEY POINT MD   1900           CALM  /  1   N/A
POTOMAC MD       2000   62 62  100/  8/  8 1010.7F   0
CAMBRIDGE MD     1900   73 60  210/  6/  9 1011.7F
LEWISETTA VA     1900   63 60  110/  9/ 11 1012.1F
RAPPAHANNOCK LGT 1900          170/ 13/ 14 1013.2F
STINGRAY PT      1900   67 64  140/  8/  8 1012.8F   0
YORK RVR RNG VA  1900   75     140/  4/  5 1012.0F
YORKTOWN VA      1900   81 63  220/  7/ 12 1012.1F
JAMESTOWN VA     2000   81 68  200/  4/  6   N/A     0
DOMINION TERM VA 1900   78     220/  5/  6 1012.8F
KIPTOPEKE VA     1900      63  140/  3/  4   N/A
CHES BAY BRIDGE  1900   77 62  280/  7/  8 1012.5F
CAPE HENRY VA    1900   74     100/  6/  8   N/A
CHESAPEAKE LGHT  1900   69      60/  5/  5 1014.3F
WILLOUBY STN VA  1900   76     250/  6/  6 1013.8F
CAPE HENRY BUOY  1912      65                N/A     3/11   2/11
CAPE CHARLES BUO 1926      66                N/A     3/10   3/10
OFFSHORE WE BUOY 1921      57                N/A     4/11   3/11
64NM E OF VA BCH 1950   59 54  210/ 12/ 12 1013.5F   4/10   3/10
DUCK PIER NC     1900   79 58  220/ 13/ 16 1013.5F
44100 DUCK FRF   1924      63                N/A     4/11   2/11
44056 DUCK FRF   1911      60                N/A     3/12   2/12
OREGON INLET NC  1900   72 70  190/ 19/ 23 1014.7F
HATTERAS NC      1900   75 69  210/ 11/ 18 1015.8F
DIAMOND SHLS NC  1950   75 74  220/ 17/ 21 1015.1F   4/10   3/10
CAPE LOOKOUT NC  2000   75     200/ 15/ 18 1015.2F
C1F1C2F2C3F3C4F4C5F5C6F6C7F7C8M1C9!



USA.gov is the U.S. government's official web portal to all federal, state and local government web resources and services.